timestamp,wind_dir_avg,wind_spd_avg,wind_spd_max_dir,wind_spd_gust,battery_voltage,lat,long
2022-04-13 00:04:01+00:00,328.0,10.25,322.0,11.27,12.49,47.59359,-54.27349
2022-04-13 00:14:01+00:00,320.0,9.98,323.0,11.08,12.41,47.59359,-54.27349
2022-04-13 00:24:01+00:00,317.0,8.72,323.0,9.95,12.41,47.59359,-54.27349
2022-04-13 00:34:01+00:00,321.0,8.73,320.0,9.42,12.41,47.59359,-54.27349
2022-04-13 00:44:01+00:00,319.0,8.72,319.0,9.76,12.41,47.59359,-54.27349
2022-04-13 00:54:01+00:00,324.0,6.07,320.0,7.66,12.41,47.59359,-54.27349
2022-04-13 01:04:01+00:00,321.0,5.88,320.0,7.02,12.41,47.59359,-54.27349
2022-04-13 01:14:00+00:00,328.0,6.15,334.0,7.0,12.25,47.59359,-54.27349
2022-04-13 01:24:00+00:00,329.0,7.94,335.0,10.24,12.25,47.59359,-54.27349
2022-04-13 01:34:00+00:00,343.0,7.0,349.0,7.96,12.25,47.59359,-54.27349
2022-04-13 01:44:00+00:00,343.0,5.26,347.0,6.27,12.25,47.59359,-54.27349
2022-04-13 01:54:00+00:00,355.0,5.24,354.0,5.9,12.25,47.59359,-54.27349
2022-04-13 02:04:00+00:00,345.0,6.69,347.0,7.49,12.25,47.59359,-54.27349
2022-04-13 02:14:00+00:00,354.0,5.46,354.0,6.24,12.33,47.59359,-54.27349
2022-04-13 02:24:00+00:00,3.0,5.68,2.0,6.29,12.33,47.59359,-54.27349
2022-04-13 02:34:00+00:00,350.0,6.34,355.0,7.11,12.33,47.59359,-54.27349
2022-04-13 02:44:00+00:00,346.0,7.71,350.0,9.56,12.33,47.59359,-54.27349
2022-04-13 02:54:00+00:00,345.0,9.11,355.0,12.46,12.33,47.59359,-54.27349
2022-04-13 03:04:00+00:00,338.0,9.82,337.0,11.99,12.33,47.59359,-54.27349
2022-04-13 03:14:00+00:00,332.0,8.39,329.0,9.85,12.17,47.59359,-54.27349
2022-04-13 03:24:00+00:00,336.0,7.37,338.0,8.27,12.17,47.59359,-54.27349
2022-04-13 03:34:00+00:00,334.0,8.08,334.0,10.79,12.17,47.59359,-54.27349
2022-04-13 03:44:00+00:00,333.0,8.61,327.0,10.35,12.17,47.59359,-54.27349
2022-04-13 03:54:00+00:00,339.0,8.25,339.0,9.12,12.17,47.59359,-54.27349
2022-04-13 04:04:00+00:00,339.0,8.09,342.0,9.11,12.17,47.59359,-54.27349
2022-04-13 04:14:00+00:00,334.0,7.71,342.0,9.13,12.25,47.59359,-54.27349
2022-04-13 04:24:00+00:00,335.0,7.66,336.0,9.12,12.25,47.59359,-54.27349
2022-04-13 04:34:00+00:00,341.0,7.8,343.0,8.72,12.25,47.59359,-54.27349
2022-04-13 04:44:00+00:00,332.0,7.58,333.0,8.35,12.25,47.59359,-54.27349
2022-04-13 04:54:00+00:00,329.0,7.7,330.0,9.54,12.25,47.59359,-54.27349
2022-04-13 05:04:00+00:00,331.0,6.23,331.0,6.96,12.25,47.59359,-54.27349
2022-04-13 05:14:00+00:00,341.0,6.67,342.0,7.33,12.25,47.59359,-54.27349
2022-04-13 05:24:00+00:00,342.0,6.48,343.0,6.97,12.25,47.59359,-54.27349
2022-04-13 05:34:00+00:00,330.0,5.52,324.0,6.9,12.25,47.59359,-54.27349
2022-04-13 05:44:00+00:00,323.0,4.74,321.0,5.28,12.25,47.59359,-54.27349
2022-04-13 05:54:00+00:00,327.0,5.85,330.0,6.74,12.25,47.59359,-54.27349
2022-04-13 06:04:00+00:00,339.0,5.96,341.0,6.5,12.25,47.59359,-54.27349
2022-04-13 06:14:01+00:00,345.0,5.92,348.0,7.07,12.17,47.59359,-54.27349
2022-04-13 06:24:01+00:00,340.0,6.63,346.0,8.02,12.17,47.59359,-54.27349
2022-04-13 06:34:01+00:00,339.0,6.01,345.0,7.34,12.17,47.59359,-54.27349
2022-04-13 06:44:01+00:00,334.0,6.69,335.0,8.47,12.17,47.59359,-54.27349
2022-04-13 06:54:01+00:00,329.0,6.34,329.0,7.3,12.17,47.59359,-54.27349
2022-04-13 07:04:01+00:00,339.0,6.41,339.0,7.18,12.17,47.59359,-54.27349
2022-04-13 07:14:00+00:00,336.0,6.72,331.0,7.52,12.09,47.59359,-54.27349
2022-04-13 07:24:00+00:00,331.0,7.36,337.0,8.0,12.09,47.59359,-54.27349
2022-04-13 07:34:00+00:00,324.0,6.9,311.0,8.48,12.09,47.59359,-54.27349
2022-04-13 07:44:00+00:00,321.0,7.55,306.0,10.27,12.09,47.59359,-54.27349
2022-04-13 07:54:00+00:00,326.0,7.14,326.0,7.94,12.09,47.59359,-54.27349
2022-04-13 08:04:00+00:00,319.0,7.41,300.0,10.08,12.09,47.59359,-54.27349
2022-04-13 08:14:01+00:00,326.0,6.95,334.0,8.15,12.09,47.59359,-54.27349
2022-04-13 08:24:01+00:00,325.0,7.37,315.0,8.72,12.09,47.59359,-54.27349
2022-04-13 08:34:01+00:00,328.0,6.67,323.0,7.9,12.09,47.59359,-54.27349
2022-04-13 08:44:01+00:00,336.0,7.43,337.0,8.5,12.09,47.59359,-54.27349
2022-04-13 08:54:01+00:00,333.0,7.07,332.0,8.0,12.09,47.59359,-54.27349
2022-04-13 09:04:01+00:00,333.0,6.86,330.0,7.96,12.09,47.59359,-54.27349
2022-04-13 09:14:00+00:00,328.0,7.77,317.0,8.62,12.09,47.59359,-54.27349
2022-04-13 09:24:00+00:00,329.0,6.76,334.0,8.73,12.09,47.59359,-54.27349
2022-04-13 09:34:00+00:00,336.0,6.62,334.0,7.32,12.09,47.59359,-54.27349
2022-04-13 09:44:00+00:00,327.0,6.15,326.0,7.09,12.09,47.59359,-54.27349
2022-04-13 09:54:00+00:00,331.0,6.87,333.0,7.88,12.09,47.59359,-54.27349
2022-04-13 10:04:00+00:00,339.0,6.17,330.0,7.23,12.09,47.59359,-54.27349
2022-04-13 10:14:00+00:00,339.0,6.32,335.0,7.59,12.41,47.59359,-54.27349
2022-04-13 10:24:00+00:00,331.0,6.8,332.0,7.73,12.41,47.59359,-54.27349
2022-04-13 10:34:00+00:00,333.0,7.58,314.0,11.27,12.41,47.59359,-54.27349
2022-04-13 10:44:00+00:00,350.0,9.14,344.0,10.88,12.41,47.59359,-54.27349
2022-04-13 10:54:00+00:00,346.0,8.09,340.0,9.67,12.41,47.59359,-54.27349
2022-04-13 11:04:00+00:00,350.0,9.01,347.0,10.44,12.41,47.59359,-54.27349
2022-04-13 11:14:00+00:00,350.0,8.36,353.0,10.28,13.44,47.59359,-54.27349
2022-04-13 11:24:00+00:00,353.0,10.32,356.0,12.66,13.44,47.59359,-54.27349
2022-04-13 11:34:00+00:00,349.0,9.93,344.0,11.92,13.44,47.59359,-54.27349
2022-04-13 11:44:00+00:00,353.0,9.65,356.0,11.17,13.44,47.59359,-54.27349
2022-04-13 11:54:00+00:00,353.0,8.92,359.0,10.02,13.44,47.59359,-54.27349
2022-04-13 12:04:00+00:00,354.0,10.83,354.0,11.99,13.44,47.59359,-54.27349
2022-04-13 12:14:00+00:00,353.0,9.64,349.0,11.35,13.53,47.59359,-54.27349
2022-04-13 12:24:00+00:00,353.0,9.15,355.0,11.27,13.53,47.59359,-54.27349
2022-04-13 12:34:00+00:00,352.0,9.33,349.0,10.51,13.53,47.59359,-54.27349
2022-04-13 12:44:00+00:00,344.0,10.17,337.0,11.84,13.53,47.59359,-54.27349
2022-04-13 12:54:00+00:00,346.0,12.31,346.0,13.34,13.53,47.59359,-54.27349
2022-04-13 13:04:00+00:00,349.0,9.45,347.0,11.08,13.53,47.59359,-54.27349
2022-04-13 13:14:01+00:00,1.0,11.65,4.0,12.98,13.53,47.59359,-54.27349
2022-04-13 13:24:01+00:00,355.0,10.73,355.0,12.97,13.53,47.59359,-54.27349
2022-04-13 13:34:01+00:00,344.0,9.14,348.0,10.21,13.53,47.59359,-54.27349
2022-04-13 13:44:01+00:00,351.0,7.83,352.0,8.94,13.53,47.59359,-54.27349
2022-04-13 13:54:01+00:00,351.0,7.27,355.0,8.51,13.53,47.59359,-54.27349
2022-04-13 14:04:01+00:00,359.0,9.13,357.0,10.05,13.53,47.59359,-54.27349
2022-04-13 14:14:00+00:00,356.0,9.89,358.0,11.32,13.68,47.59359,-54.27349
2022-04-13 14:24:00+00:00,349.0,10.58,351.0,12.65,13.68,47.59359,-54.27349
2022-04-13 14:34:00+00:00,355.0,8.92,359.0,9.79,13.68,47.59359,-54.27349
2022-04-13 14:44:00+00:00,351.0,7.91,349.0,8.9,13.68,47.59359,-54.27349
2022-04-13 14:54:00+00:00,2.0,11.28,2.0,13.45,13.68,47.59359,-54.27349
2022-04-13 15:04:00+00:00,4.0,11.3,8.0,13.58,13.68,47.59359,-54.27349
2022-04-13 15:14:00+00:00,3.0,11.77,3.0,12.98,13.84,47.59359,-54.27349
2022-04-13 15:24:00+00:00,4.0,9.16,4.0,9.92,13.84,47.59359,-54.27349
2022-04-13 15:34:00+00:00,354.0,9.98,353.0,12.4,13.84,47.59359,-54.27349
2022-04-13 15:44:00+00:00,2.0,10.87,359.0,11.98,13.84,47.59359,-54.27349
2022-04-13 15:54:00+00:00,3.0,8.75,2.0,9.69,13.84,47.59359,-54.27349
2022-04-13 16:04:00+00:00,357.0,10.48,354.0,11.77,13.84,47.59359,-54.27349
2022-04-13 16:14:01+00:00,6.0,8.57,9.0,10.19,13.53,47.59359,-54.27349
2022-04-13 16:24:01+00:00,2.0,9.16,2.0,10.0,13.53,47.59359,-54.27349
2022-04-13 16:34:01+00:00,353.0,10.81,353.0,12.4,13.53,47.59359,-54.27349
2022-04-13 16:44:01+00:00,358.0,11.77,0.0,14.33,13.53,47.59359,-54.27349
2022-04-13 16:54:01+00:00,1.0,11.26,5.0,13.45,13.53,47.59359,-54.27349
2022-04-13 17:04:01+00:00,357.0,12.4,354.0,13.79,13.53,47.59359,-54.27349
2022-04-13 17:14:01+00:00,347.0,11.56,339.0,13.26,13.6,47.59359,-54.27349
2022-04-13 17:24:01+00:00,352.0,12.3,355.0,13.91,13.6,47.59359,-54.27349
2022-04-13 17:34:01+00:00,1.0,11.23,0.0,12.6,13.6,47.59359,-54.27349
2022-04-13 17:44:01+00:00,0.0,10.85,2.0,13.19,13.6,47.59359,-54.27349
2022-04-13 17:54:01+00:00,355.0,12.25,350.0,14.9,13.6,47.59359,-54.27349
2022-04-13 18:04:01+00:00,349.0,12.11,351.0,13.35,13.6,47.59359,-54.27349
2022-04-13 18:14:01+00:00,1.0,9.85,8.0,11.8,13.6,47.59359,-54.27349
2022-04-13 18:24:01+00:00,5.0,9.84,3.0,11.67,13.6,47.59359,-54.27349
2022-04-13 18:34:01+00:00,2.0,10.95,4.0,12.31,13.6,47.59359,-54.27349
2022-04-13 18:44:01+00:00,358.0,11.02,357.0,13.13,13.6,47.59359,-54.27349
2022-04-13 18:54:01+00:00,359.0,11.22,359.0,12.93,13.6,47.59359,-54.27349
2022-04-13 19:04:01+00:00,0.0,11.54,5.0,12.8,13.6,47.59359,-54.27349
2022-04-13 19:14:01+00:00,351.0,13.76,352.0,14.85,13.68,47.59359,-54.27349
2022-04-13 19:24:01+00:00,2.0,9.8,8.0,11.06,13.68,47.59359,-54.27349
2022-04-13 19:34:01+00:00,359.0,11.16,1.0,12.23,13.68,47.59359,-54.27349
2022-04-13 19:44:01+00:00,3.0,10.71,4.0,12.69,13.68,47.59359,-54.27349
2022-04-13 19:54:01+00:00,359.0,12.51,356.0,14.64,13.68,47.59359,-54.27349
2022-04-13 20:04:01+00:00,356.0,10.2,355.0,11.37,13.68,47.59359,-54.27349
2022-04-13 20:14:01+00:00,356.0,12.34,349.0,15.4,13.6,47.59359,-54.27349
2022-04-13 20:24:01+00:00,356.0,12.62,354.0,14.75,13.6,47.59359,-54.27349
2022-04-13 20:34:01+00:00,2.0,12.1,4.0,13.91,13.6,47.59359,-54.27349
2022-04-13 20:44:01+00:00,353.0,8.86,353.0,9.98,13.6,47.59359,-54.27349
2022-04-13 20:54:01+00:00,0.0,10.22,3.0,11.64,13.6,47.59359,-54.27349
2022-04-13 21:04:01+00:00,0.0,9.76,1.0,10.93,13.6,47.59359,-54.27349
2022-04-13 21:14:01+00:00,357.0,10.29,4.0,12.01,13.13,47.59359,-54.27349
2022-04-13 21:24:01+00:00,0.0,11.98,357.0,13.28,13.13,47.59359,-54.27349
2022-04-13 21:34:01+00:00,1.0,11.91,11.0,13.97,13.13,47.59359,-54.27349
2022-04-13 21:44:01+00:00,3.0,11.39,355.0,14.45,13.13,47.59359,-54.27349
2022-04-13 21:54:01+00:00,356.0,10.77,354.0,12.26,13.13,47.59359,-54.27349
2022-04-13 22:04:01+00:00,355.0,10.71,358.0,11.53,13.13,47.59359,-54.27349
2022-04-13 22:14:01+00:00,358.0,9.29,1.0,10.76,12.73,47.59359,-54.27349
2022-04-13 22:24:01+00:00,3.0,10.93,3.0,13.4,12.73,47.59359,-54.27349
2022-04-13 22:34:01+00:00,0.0,11.91,2.0,13.13,12.73,47.59359,-54.27349
2022-04-13 22:44:01+00:00,356.0,10.19,352.0,11.54,12.73,47.59359,-54.27349
2022-04-13 22:54:01+00:00,3.0,8.52,5.0,9.92,12.73,47.59359,-54.27349
2022-04-13 23:04:01+00:00,356.0,9.8,355.0,11.59,12.73,47.59359,-54.27349
2022-04-13 23:14:01+00:00,1.0,10.37,2.0,11.82,12.33,47.59359,-54.27349
2022-04-13 23:24:01+00:00,358.0,9.88,356.0,11.47,12.33,47.59359,-54.27349
2022-04-13 23:34:01+00:00,356.0,11.32,358.0,12.71,12.33,47.59359,-54.27349
2022-04-13 23:44:01+00:00,358.0,12.05,349.0,13.37,12.33,47.59359,-54.27349
2022-04-13 23:54:01+00:00,357.0,10.71,357.0,12.13,12.33,47.59359,-54.27349
